Regional Weather Roundup
Issued by NWS Goodland, KS

Home | Current Version | Previous Version | Text Only | Print | Product List | Glossary Off
Versions: 1 2 3 4 5 6 7 8 9 10 11 12 13 14 15 16 17 18 19 20 21 22 23 24 25 26 27 28 29 30 31 32 33 34 35 36 37 38 39 40 41 42 43 44 45 46 47 48 49 50

000
ASUS43 KGLD 250008
RWRGLD

GOODLAND FORECAST AREA HOURLY WEATHER ROUNDUP
NATIONAL WEATHER SERVICE GOODLAND KS
600 PM MDT SUN MAY 24 2015

...OFFICIAL OBSERVATIONS...

CITY           SKY/WX    TMP DP  RH WIND       PRES   REMARKS
GOODLAND KS    PTSUNNY   66  54  65 SE15      29.76R
HILL CITY KS   CLOUDY    68  58  70 SE12      29.77F
IMPERIAL NEB   LGT RAIN  64  57  78 E17       29.73F
MCCOOK NEB     PTSUNNY   69  58  67 E14G25    29.76S
AKRON CO       CLOUDY    49  46  90 N12       29.80F
BURLINGTON CO  TSTM      46  43  89 N8        29.83R FOG
LIMON CO       CLOUDY    58  36  43 SW8       29.82R
$$

...UNOFFICIAL OBSERVATIONS...

CITY           SKY/WX    TMP DP  RH WIND       PRES   REMARKS
COLBY KS       MOSUNNY   66  59  77 SE17      29.77F
LENORA KS        N/A     66  32  28 MISG        N/A
NORTON KS      PTSUNNY   68  57  68 E10       29.77
$$


USA.gov is the U.S. government's official web portal to all federal, state and local government web resources and services.